Theta_e
288 288 287 287 286 285 285 284 283 284 283 283 283 283 282 282 282 282 282 281 281 280 280 280 280 280 279 279 279 279 278 278 278 278 278 278 278 277 277 278 277 277 277 276 277 277 277 276 276 276 276 276 276 276 276 276 276 277 276 276 276 276 275 275 274 274 275 276 275 275 276 276 275 276 275 276 276 277 278 278 278 278 278 278 278
287 287 286 286 285 285 284 284 283 283 283 282 282 282 282 282 281 281 281 280 280 280 280 279 279 279 279 278 278 278 278 278 278 278 278 277 277 277 277 277 277 276 276 276 276 276 276 276 275 275 276 275 275 275 276 276 276 275 275 275 275 275 276 274 274 274 273 275 275 276 275 276 274 276 275 275 276 277 277 277 278 278 277 278 277
287 286 286 285 284 284 283 283 283 282 282 282 281 281 281 281 281 281 280 279 280 279 279 279 278 278 278 278 278 278 278 277 277 277 277 277 276 276 276 276 276 276 275 275 275 276 275 275 275 275 275 275 275 275 275 275 275 275 275 275 275 275 275 275 274 272 272 272 274 273 274 274 274 274 276 276 276 277 277 277 277 277 277 277 277
286 285 285 284 284 283 283 282 281 281 281 281 280 280 280 280 280 280 279 279 279 279 279 278 278 278 278 277 277 277 277 277 276 277 277 277 276 276 276 276 276 276 275 275 275 275 275 274 274 274 275 274 274 274 275 275 275 275 274 275 274 274 275 275 274 273 272 271 273 273 273 273 274 275 276 276 277 277 277 276 277 276 276 276 276
285 285 284 284 283 282 282 281 281 281 281 281 280 280 279 279 280 279 279 278 278 278 278 278 278 278 277 277 277 276 276 276 276 276 276 276 276 276 275 275 275 275 275 275 275 275 275 275 274 274 274 274 274 274 274 274 274 274 274 274 274 274 274 274 274 274 272 272 272 273 274 274 275 275 276 276 276 276 276 275 275 275 275 275 275
285 284 284 283 283 282 282 281 281 280 280 280 280 279 279 279 279 279 279 278 278 278 277 278 278 277 277 277 277 276 276 276 276 276 276 276 275 275 275 275 275 274 275 275 275 275 275 275 274 274 274 274 274 274 274 273 273 273 273 274 274 274 274 274 274 273 273 272 272 271 273 273 274 275 277 276 274 273 274 275 275 275 274 273 274
284 283 283 283 282 282 281 281 281 281 280 280 279 279 279 279 278 278 278 278 277 277 277 277 277 277 277 276 276 276 275 275 275 275 275 275 275 275 275 274 274 274 274 274 274 274 275 274 274 274 274 274 274 273 273 273 273 273 274 273 274 273 273 273 273 273 272 272 272 272 272 274 275 274 276 276 274 274 272 272 272 274 273 273 272
284 283 283 282 282 282 282 282 281 280 280 280 279 279 279 279 278 278 278 277 277 277 277 277 277 277 276 276 275 275 275 274 274 275 275 275 275 275 275 274 274 274 274 274 274 274 274 274 274 274 274 274 274 274 274 273 274 273 274 274 274 273 273 273 272 272 271 271 271 272 273 273 274 276 275 274 273 273 273 271 269 270 271 272 272
284 283 283 283 282 282 282 282 281 281 280 279 279 279 279 278 278 278 278 278 278 278 277 277 276 276 276 276 275 275 274 274 275 275 275 275 275 275 275 274 274 274 274 273 274 274 274 274 274 274 274 274 275 275 275 275 274 273 273 274 273 273 273 272 271 271 271 271 271 273 273 273 274 273 272 271 271 270 271 272 270 271 271 270 271
284 284 283 283 283 282 281 281 280 280 280 279 279 279 279 278 278 278 278 278 278 278 277 277 276 276 275 275 275 274 274 274 276 278 278 276 276 275 275 275 274 274 274 274 273 273 273 273 273 274 275 275 276 276 277 277 276 275 274 274 273 272 270 269 270 271 271 270 271 272 271 272 273 272 271 272 272 272 271 271 269 270 270 269 271
284 284 284 284 283 282 281 281 280 280 280 280 279 279 279 278 278 278 277 277 277 277 276 276 275 275 275 274 274 274 274 274 279 280 280 279 276 276 275 275 274 274 274 273 273 273 273 273 273 275 275 276 276 278 278 279 278 277 277 276 275 272 269 269 270 270 270 271 272 272 272 272 272 273 272 272 272 271 270 270 270 269 267 266 265
285 284 284 284 283 282 281 281 280 280 280 279 279 279 278 278 278 277 277 276 276 276 276 275 275 275 275 274 274 274 274 277 281 282 282 281 278 276 275 275 274 274 274 273 273 273 273 273 273 274 275 276 276 277 278 279 279 279 278 278 277 277 275 273 271 272 272 272 272 272 272 272 272 272 272 271 271 271 271 270 269 268 267 266 266
285 284 284 284 283 282 282 281 280 280 280 279 279 278 278 278 277 277 276 277 276 275 276 275 275 275 274 274 274 274 274 278 282 283 283 282 281 277 275 275 274 274 274 273 273 273 273 272 272 272 272 275 274 273 274 275 278 278 278 278 278 278 278 278 277 275 275 274 273 272 273 272 271 272 272 271 272 270 270 269 269 268 268 267 266
284 284 284 284 283 282 282 281 280 280 280 279 278 278 277 277 277 277 277 276 276 276 275 275 275 274 274 274 274 274 273 279 283 283 283 283 282 278 275 275 274 274 274 273 273 273 273 272 272 271 272 273 273 272 272 272 272 273 274 275 275 276 278 278 278 278 278 275 274 272 273 274 272 273 273 273 271 270 269 268 269 268 267 266 267
284 284 284 283 283 282 282 281 280 280 279 279 279 278 278 278 277 277 276 276 276 275 275 275 274 274 274 274 274 274 273 279 283 284 284 284 283 279 275 275 274 274 274 274 273 273 273 272 272 272 272 272 272 272 271 271 270 269 269 270 271 272 273 274 275 276 276 276 275 275 274 274 274 273 274 274 273 272 271 270 269 267 266 266 266
283 283 283 283 282 282 282 281 281 280 279 279 278 278 278 278 277 277 277 276 277 276 276 276 275 274 274 274 274 273 274 280 283 284 284 284 284 278 274 274 274 274 274 274 273 273 273 272 272 272 271 271 273 275 273 271 269 267 267 268 269 270 271 274 276 277 276 276 276 275 274 274 275 275 275 274 273 272 271 269 268 266 264 264 263
283 283 283 282 282 282 282 281 281 280 279 279 278 279 278 277 277 277 276 276 276 276 275 275 275 274 274 274 274 274 274 278 282 284 285 285 284 277 275 274 274 273 273 273 273 273 272 272 272 272 271 271 273 277 277 274 268 266 267 267 268 269 271 274 277 279 279 279 279 278 278 277 276 276 275 275 274 272 269 267 266 264 263 262 262
283 282 282 282 282 282 282 282 281 280 279 279 279 279 279 278 277 277 276 276 276 276 276 275 275 275 274 274 274 275 274 277 282 283 285 285 284 278 276 275 274 274 273 273 273 273 272 273 273 272 271 271 275 277 278 276 270 268 268 267 267 269 271 274 275 277 278 278 277 275 274 274 274 273 272 272 272 272 268 265 264 264 262 262 261
282 282 282 282 282 282 282 282 281 280 279 280 279 279 278 278 278 277 277 277 276 276 276 275 275 275 275 275 276 276 276 276 281 283 284 285 285 280 277 276 275 274 273 273 273 273 272 273 274 273 272 272 276 278 279 277 273 271 270 270 269 270 272 274 274 272 271 270 271 270 270 271 268 267 268 270 270 270 269 266 265 264 263 262 262
283 283 282 282 281 281 282 282 281 280 280 280 280 279 279 278 277 276 276 276 276 275 275 275 275 275 275 275 275 276 276 276 278 282 284 285 286 282 279 277 275 275 274 273 272 272 272 272 273 276 276 276 276 278 279 280 276 274 273 271 270 270 274 273 272 272 270 270 270 269 269 267 266 266 266 265 266 267 267 267 267 265 263 263 262
282 282 281 280 280 280 281 281 281 281 281 280 280 279 278 277 277 276 276 276 276 275 275 275 275 275 275 275 275 275 276 276 276 281 283 284 285 285 279 278 278 277 275 274 273 273 272 271 271 274 277 278 278 278 279 280 279 276 274 273 273 273 275 272 272 274 270 269 268 266 266 264 264 264 264 265 265 266 266 268 268 267 265 263 262
282 281 281 281 280 280 281 281 281 280 280 279 279 278 278 278 277 277 277 276 276 275 275 275 275 276 276 275 275 275 276 276 275 279 282 284 285 286 282 279 279 277 276 274 274 273 274 273 272 272 275 278 279 279 279 280 280 278 275 278 278 278 276 273 272 272 270 268 266 264 262 262 262 262 262 263 264 264 265 265 267 267 267 267 264
282 281 281 281 281 281 281 281 280 280 279 279 279 278 278 278 277 277 277 276 276 276 275 275 275 276 276 275 274 274 274 274 277 275 279 282 284 285 285 282 282 278 276 275 274 274 274 273 273 274 275 276 279 280 280 281 280 279 280 280 280 280 279 273 271 270 267 265 263 264 263 262 261 262 262 262 263 264 265 266 266 266 266 266 267
282 281 281 281 281 280 280 280 280 280 279 279 279 278 278 278 277 277 277 276 276 276 276 276 275 275 275 274 273 272 272 272 274 277 275 279 282 283 285 285 283 279 276 276 277 276 274 272 271 274 275 276 278 279 281 281 279 281 281 281 280 280 275 269 268 268 266 265 264 263 263 263 262 262 262 263 263 264 264 265 265 265 265 265 266
281 281 281 281 281 280 280 280 280 280 279 279 279 278 277 277 277 276 276 276 276 276 276 275 274 275 274 274 274 272 271 270 269 273 277 277 279 281 282 284 285 284 278 276 276 275 276 275 275 276 276 277 278 279 279 280 281 281 281 280 279 277 270 270 268 266 265 265 265 265 264 263 263 263 264 264 264 264 263 263 263 263 263 263 263
281 281 281 281 280 280 280 280 280 280 279 279 279 279 278 277 277 275 275 276 275 275 275 274 273 273 273 274 274 273 271 269 269 268 271 274 276 278 280 281 283 284 282 279 277 277 277 277 277 277 277 277 276 275 275 276 279 280 280 279 278 271 270 269 267 266 267 266 266 264 265 263 262 263 263 263 262 261 260 260 260 260 260 260 260
280 280 280 279 279 279 278 278 278 277 277 278 278 278 277 276 276 274 274 274 274 274 274 273 273 272 272 273 273 272 271 269 269 268 268 269 271 273 275 277 279 281 282 282 280 278 278 277 276 277 276 277 276 276 276 276 276 276 277 277 275 270 270 270 269 268 268 267 265 264 263 262 261 260 260 260 259 259 260 259 259 259 259 260 259
279 279 278 278 277 278 278 274 275 276 276 276 276 275 275 275 275 274 273 274 274 273 273 273 272 272 272 273 273 271 271 270 269 269 268 267 268 270 271 272 273 275 277 279 280 279 277 277 278 276 276 275 274 274 274 274 274 273 274 273 270 269 268 269 269 267 267 265 264 262 260 259 259 259 259 259 258 258 258 258 258 259 260 260 259
277 276 276 276 276 276 277 275 276 276 275 275 276 276 275 275 275 275 275 275 275 275 274 274 274 274 274 273 272 271 271 270 271 273 270 271 268 267 268 269 270 272 275 278 276 275 275 274 274 274 274 272 272 272 273 273 272 272 271 270 267 267 267 267 267 265 264 262 261 261 261 259 259 258 258 258 258 258 258 258 259 258 259 259 258
275 274 275 275 274 274 275 274 274 274 274 274 273 270 272 276 276 275 274 275 277 278 277 274 274 273 273 273 273 273 273 273 275 276 276 276 275 275 274 273 274 272 274 277 277 275 274 273 273 273 272 272 271 271 272 272 271 270 269 269 266 265 265 265 266 265 262 262 262 261 260 259 259 258 258 258 258 258 259 260 259 260 258 258 257
275 274 274 274 274 274 273 273 272 272 272 272 272 272 270 270 278 278 277 276 277 278 279 279 278 277 273 271 272 277 277 277 277 278 278 278 278 278 278 277 277 277 277 274 274 274 273 273 273 273 273 273 272 271 272 271 269 269 269 267 267 265 265 264 264 263 261 261 260 260 260 259 259 259 258 258 258 259 258 259 259 259 258 257 257
275 274 273 271 272 272 272 271 270 270 269 269 270 271 271 271 268 275 278 278 278 278 279 279 280 279 278 276 272 269 275 278 279 279 279 279 279 279 279 279 279 279 278 278 272 271 273 273 273 273 273 272 272 272 272 271 270 270 269 267 266 265 265 265 263 261 260 261 260 259 258 259 259 259 258 258 258 258 258 258 258 257 257 257 257
273 271 270 270 270 270 270 270 269 270 269 268 267 268 270 270 271 270 271 277 279 279 278 279 279 280 280 280 279 276 275 276 278 279 279 279 279 279 280 280 280 280 280 276 273 271 271 272 272 272 272 272 272 272 272 271 271 270 269 268 267 265 265 265 265 262 261 261 260 260 259 259 258 258 258 258 258 257 258 257 257 257 257 256 256
272 271 271 270 270 270 270 269 269 269 269 268 268 268 269 270 271 270 269 266 268 274 278 279 280 280 280 280 280 280 280 279 278 278 279 279 280 280 280 278 280 281 279 276 274 273 272 271 271 271 272 272 272 272 271 271 271 270 269 268 268 267 265 264 263 262 261 261 261 259 259 259 258 257 257 257 257 257 257 257 256 256 256 256 256
269 268 267 268 270 270 269 269 268 267 267 267 267 267 268 266 267 267 268 269 270 270 267 269 274 279 278 279 280 280 280 281 281 281 280 280 279 279 280 277 276 276 277 277 276 274 273 272 271 271 271 271 270 270 271 271 270 269 268 267 267 267 264 262 263 262 261 261 261 260 259 258 257 257 257 256 256 255 256 256 256 256 255 256 256
267 268 267 267 267 267 267 267 267 267 267 266 266 266 265 265 265 266 265 265 266 266 265 264 263 268 272 274 277 278 279 280 280 280 280 281 281 281 276 274 274 275 275 275 276 275 275 274 273 272 272 271 270 270 270 270 269 269 269 268 266 266 264 262 261 261 261 261 260 260 260 258 257 256 256 256 255 255 256 256 256 255 255 255 256
267 267 267 266 265 265 264 264 264 265 267 264 264 263 263 263 263 262 262 263 263 262 262 259 260 263 267 266 268 272 274 276 277 279 279 280 280 279 277 276 274 274 274 274 274 275 274 274 274 273 272 270 270 270 269 269 269 268 268 267 266 265 263 262 262 260 260 259 259 259 259 258 257 256 255 255 255 255 255 255 255 255 255 256 256
267 267 266 265 264 263 263 263 262 266 264 262 262 263 262 261 261 261 262 262 261 261 260 259 263 262 262 264 266 266 267 271 272 273 274 276 277 277 277 276 275 274 274 274 274 274 274 274 274 273 272 271 270 270 269 269 268 267 266 265 264 264 264 262 262 260 259 259 258 258 257 257 256 255 255 255 255 255 255 255 255 254 255 256 256
264 266 266 266 266 264 263 263 263 263 261 262 262 262 261 261 259 259 259 258 259 259 259 257 258 260 262 260 260 262 264 263 264 266 267 270 272 274 276 276 275 275 274 274 274 273 273 273 273 272 271 271 270 270 269 268 267 266 265 264 263 262 262 261 260 259 258 258 257 257 256 256 256 255 254 255 255 255 255 255 254 254 254 254 254
264 264 266 268 266 266 262 262 262 262 261 261 259 259 259 260 261 260 258 258 259 258 258 259 260 260 259 256 259 260 261 263 263 264 265 267 269 271 273 273 274 274 274 274 274 273 273 273 272 270 270 269 269 269 268 268 266 265 264 263 262 260 261 261 260 259 258 258 257 257 255 255 255 254 253 254 255 255 254 254 254 254 254 254 254
264 264 264 267 265 264 261 260 260 261 260 260 260 260 261 260 259 258 257 259 258 257 258 258 258 257 258 262 267 267 264 263 263 263 264 265 267 270 271 272 273 273 273 273 273 273 272 272 271 270 270 269 268 267 266 265 264 263 262 261 261 260 260 260 259 259 260 258 258 257 255 255 254 253 253 253 255 255 254 254 254 254 254 254 254
263 262 264 264 264 261 260 259 259 260 259 259 258 259 258 258 257 257 257 257 257 257 257 256 256 254 259 265 266 268 267 265 265 265 265 266 266 267 268 269 269 269 268 269 268 269 270 271 270 270 269 267 266 265 264 263 263 262 261 260 260 260 259 259 258 258 258 257 256 256 255 254 253 253 254 255 254 254 254 253 253 253 253 253 253
261 260 261 260 260 261 260 259 257 257 256 257 257 258 257 256 256 257 257 257 256 256 256 255 255 254 256 264 265 266 263 261 264 265 266 267 267 267 267 267 266 264 264 263 263 264 265 265 265 265 265 265 265 264 263 263 262 262 261 260 260 260 260 259 258 257 257 256 255 254 253 254 254 254 253 254 254 253 253 253 252 252 253 253 252
259 258 258 258 257 256 256 257 257 256 256 257 256 256 256 255 255 254 255 254 254 255 255 255 255 254 254 257 260 259 256 257 257 258 260 263 265 265 266 265 263 262 261 261 261 262 263 263 262 262 262 262 262 262 262 262 262 261 261 260 259 259 259 259 258 257 256 255 254 254 253 253 253 254 253 253 252 252 252 251 251 251 252 251 251
258 258 258 257 255 257 255 254 255 255 256 256 254 254 255 254 254 253 254 253 255 254 254 254 254 254 255 253 252 253 254 254 257 258 258 258 258 259 261 260 260 260 260 260 259 259 261 261 261 261 260 260 259 260 260 260 261 261 261 260 260 258 258 258 258 258 256 255 254 254 253 253 252 253 252 253 252 251 252 251 251 252 251 251 251
256 256 257 257 256 255 254 253 254 254 255 254 254 252 251 251 251 252 253 253 254 253 253 253 253 253 254 253 253 255 254 252 253 254 255 255 256 257 258 258 258 258 257 257 257 257 258 259 260 260 260 259 258 258 258 257 257 258 258 259 260 259 259 258 257 256 255 255 255 254 254 253 253 252 252 251 251 251 251 250 249 251 251 251 251
254 255 255 255 256 254 254 253 252 252 251 251 251 251 250 249 249 252 253 253 252 254 252 251 252 252 252 252 253 253 253 254 253 253 252 252 253 253 253 252 253 253 253 253 251 253 253 254 255 256 257 258 257 256 256 256 256 256 256 256 256 257 256 256 255 255 255 255 255 254 253 253 252 251 252 252 250 250 250 250 250 250 250 251 251
254 253 253 253 253 254 252 252 253 254 252 252 251 251 251 251 251 251 250 251 252 252 252 251 250 250 252 252 252 252 252 251 252 253 252 252 251 251 250 250 251 251 251 252 252 253 253 253 254 254 255 256 256 256 256 255 255 255 254 255 254 255 255 254 254 254 254 254 253 253 252 252 252 251 251 251 250 250 250 250 250 251 250 250 251
252 254 253 253 252 253 253 253 253 251 251 250 251 251 251 250 250 250 250 251 250 251 250 250 249 249 250 251 251 251 251 252 250 250 250 250 251 251 250 250 252 251 252 252 252 252 252 253 253 253 253 254 255 255 255 255 254 254 254 253 253 254 254 254 253 252 252 252 251 251 250 251 250 250 250 250 250 250 251 250 249 250 251 251 251
251 252 252 252 252 250 250 250 250 249 250 249 249 249 251 250 250 250 249 250 249 250 248 249 250 250 250 251 252 251 251 251 250 250 249 248 249 249 250 250 249 249 250 250 251 251 252 251 251 252 252 253 253 254 254 254 254 254 253 253 255 255 255 254 254 253 252 251 250 250 250 250 249 249 250 250 249 249 249 250 250 250 250 249 250
252 251 251 251 250 250 250 249 249 248 249 249 248 249 250 249 248 249 249 249 249 249 250 248 247 249 250 249 251 250 250 249 249 249 249 249 249 249 250 249 249 249 249 249 250 250 250 250 250 251 250 251 252 252 252 252 252 252 253 254 255 255 255 254 253 253 253 251 248 249 249 249 249 248 248 248 248 248 249 250 249 249 250 250 250
Wind_Speed
11 10 9 10 10 11 10 9 9 7 9 9 8 9 8 8 7 8 8 7 7 7 6 6 6 6 7 6 6 7 8 7 6 7 7 7 6 6 7 7 8 7 7 7 5 6 6 7 6 5 4 5 4 4 4 4 4 4 3 3 4 3 2 2 3 3 2 1 0 2 3 6 6 6 7 7 7 7 7 7 8 7 8 8 9
11 10 9 9 11 10 10 8 7 6 10 10 9 8 8 8 8 8 9 7 7 7 7 6 6 7 7 7 7 7 7 8 7 6 7 7 7 4 6 7 8 8 7 7 7 4 6 7 7 6 4 5 5 5 4 4 4 4 4 4 3 3 2 2 2 2 2 1 3 2 3 5 6 5 7 9 8 8 8 7 6 7 7 8 9
11 10 10 10 10 8 8 8 8 9 10 9 9 8 7 7 6 8 8 8 7 6 7 7 7 7 7 6 7 7 7 7 6 7 7 7 8 6 5 6 8 8 7 6 6 6 6 6 7 6 4 5 4 4 4 4 4 4 4 3 3 3 3 2 2 1 2 3 1 2 4 5 5 7 8 7 8 7 8 7 7 6 6 8 9
10 10 9 10 10 10 9 7 8 8 10 8 10 8 7 7 6 7 7 7 8 7 6 8 7 7 7 7 7 7 8 7 7 6 6 7 7 7 6 6 5 6 7 7 7 6 7 7 6 6 6 6 5 5 4 4 4 4 4 3 3 4 3 3 2 2 2 2 2 2 4 5 5 6 7 7 7 7 6 6 6 6 7 7 9
11 11 11 12 11 10 9 9 9 10 9 8 11 10 9 8 7 8 8 8 7 8 7 6 7 7 7 8 8 7 7 8 8 7 5 5 6 6 6 6 6 6 6 6 6 6 7 6 8 7 7 7 6 5 5 6 4 4 4 4 4 3 3 3 2 2 2 3 4 2 3 4 5 6 6 7 7 7 7 6 6 6 7 8 8
12 12 11 12 11 11 10 9 10 13 12 11 11 11 9 9 9 7 8 9 8 7 8 7 7 7 7 7 7 7 7 7 7 7 6 6 5 4 4 5 5 5 6 6 6 5 5 6 7 8 8 7 7 6 6 7 5 5 5 5 4 3 3 3 3 3 3 3 3 4 3 4 5 5 5 6 8 9 7 4 5 5 7 8 8
12 13 12 13 11 11 10 10 12 12 11 10 9 9 9 9 9 9 8 8 9 9 8 7 6 6 8 8 8 8 7 7 6 6 6 6 5 6 5 5 5 4 5 5 5 5 4 5 7 8 8 7 7 8 7 7 6 7 6 6 5 4 4 3 3 3 2 3 3 4 5 4 5 6 5 6 7 6 9 11 8 3 5 8 10
13 13 13 13 13 11 10 12 12 12 9 8 9 8 9 9 9 8 9 10 9 9 9 9 8 6 7 8 8 7 8 7 7 7 6 6 6 6 7 5 6 5 4 4 4 4 5 5 6 7 6 6 6 7 8 7 6 6 5 5 5 5 4 4 3 3 2 2 3 4 5 5 5 4 5 6 6 5 6 8 11 12 10 8 8
13 13 13 14 13 12 11 11 10 11 10 10 10 9 8 9 10 9 10 8 6 7 7 8 9 8 6 8 8 7 7 7 7 8 8 7 6 8 7 6 6 6 5 4 4 4 4 4 5 5 5 6 8 7 7 6 6 6 5 6 6 6 5 3 3 2 1 2 3 4 5 5 5 6 6 6 7 8 8 8 9 9 11 11 9
14 13 14 13 11 11 11 11 11 11 9 10 11 11 9 9 9 11 11 10 9 9 9 8 8 8 8 7 7 7 6 6 9 14 11 9 8 6 6 6 5 5 6 5 4 4 4 4 4 7 8 9 10 11 12 11 9 6 5 6 5 4 4 3 3 2 2 2 4 4 5 5 5 6 6 6 7 8 9 9 10 11 11 10 7
13 13 13 11 11 11 11 11 11 12 11 11 10 11 11 10 9 9 9 8 10 9 9 10 9 8 9 10 10 7 6 6 14 15 15 15 9 9 9 8 5 5 5 6 6 5 4 4 4 7 8 9 9 13 12 12 11 10 10 11 8 7 6 5 4 4 3 3 4 4 5 6 6 5 6 6 7 7 7 8 8 9 9 11 13
13 13 12 11 11 12 12 12 12 12 12 12 12 11 10 9 9 10 10 10 9 8 9 9 9 8 7 8 8 7 6 10 15 15 15 16 12 9 7 7 6 6 6 6 5 5 6 5 5 4 5 7 6 8 10 11 11 12 12 11 12 12 10 7 4 3 5 4 4 5 4 5 5 5 5 7 7 7 7 7 7 8 8 8 9
11 11 11 12 12 12 12 13 13 11 12 12 11 11 11 10 10 10 11 10 9 10 10 10 10 9 9 10 9 8 8 13 15 16 15 15 15 9 4 5 6 6 6 6 6 6 6 5 5 5 3 9 7 5 3 5 9 11 10 11 12 13 13 13 11 7 5 5 5 5 5 5 5 5 6 7 7 7 7 6 7 7 7 8 9
11 11 11 12 12 12 12 12 12 11 10 11 12 13 13 13 12 10 10 10 12 12 11 11 9 10 10 10 9 8 8 12 17 17 16 16 15 11 5 6 5 6 6 7 6 7 8 7 7 7 6 8 7 7 6 5 4 3 5 6 6 9 12 12 12 12 10 6 5 6 6 5 6 6 5 6 6 6 6 7 7 8 8 9 11
11 11 11 11 11 11 12 12 13 13 13 13 13 14 15 14 15 13 13 14 14 13 13 12 10 10 9 8 8 8 7 14 16 17 16 16 16 11 6 5 5 5 6 7 8 7 8 7 8 7 8 9 7 9 8 7 5 5 5 6 4 4 5 5 6 6 5 5 5 6 3 3 3 5 6 5 6 6 5 6 4 4 5 6 6
11 10 10 11 12 13 12 11 11 11 13 12 13 13 12 13 13 10 8 7 7 8 8 9 11 10 9 8 8 8 7 15 16 17 17 16 18 7 6 6 6 6 7 7 7 7 7 8 8 8 8 8 12 16 11 6 6 7 8 7 6 5 5 7 10 9 7 6 6 6 4 6 7 5 5 5 6 5 5 1 1 2 4 5 5
10 10 11 11 11 11 12 12 11 12 12 12 12 12 12 10 8 8 10 10 10 10 10 10 10 10 11 10 10 8 7 13 17 17 17 18 14 6 6 5 6 6 6 7 6 7 7 9 8 8 9 9 13 16 15 12 7 9 8 8 7 5 6 6 12 15 13 12 12 10 10 9 8 8 8 9 7 6 1 4 6 1 3 6 5
9 10 11 10 12 12 12 12 12 12 11 12 12 11 10 9 11 10 12 12 11 11 10 9 8 9 11 11 10 10 9 12 18 18 19 20 15 8 7 6 6 6 5 5 5 6 8 14 12 9 9 9 16 17 17 14 9 8 7 8 8 7 8 7 5 8 12 11 9 4 1 1 3 4 5 6 7 6 2 4 2 0 3 4 6
11 12 12 11 11 11 10 11 11 12 12 11 11 11 11 11 8 7 6 7 8 7 7 8 8 7 8 10 10 11 9 11 18 18 20 20 16 8 7 6 6 7 6 6 6 6 6 10 16 13 11 10 18 17 18 16 10 11 11 10 9 11 10 9 10 7 4 3 3 3 2 3 1 2 3 5 6 5 4 4 2 2 4 5 6
10 8 9 10 9 9 9 11 11 12 12 10 9 9 8 7 7 8 5 5 5 5 5 6 8 8 8 9 9 10 10 9 12 20 20 21 22 11 9 9 10 11 8 6 5 7 8 8 11 19 19 17 18 18 18 21 14 11 11 11 11 14 9 9 9 8 7 6 4 4 4 2 1 2 3 3 3 4 4 4 4 4 5 5 5
8 9 9 8 8 9 8 9 10 9 9 10 9 8 8 9 9 9 8 6 6 6 8 7 8 8 8 9 9 10 10 10 11 19 20 22 24 20 10 12 11 9 9 9 9 10 8 7 6 14 19 19 18 19 19 22 22 13 13 13 13 8 7 7 9 13 9 6 5 4 3 1 2 2 3 3 3 3 3 4 5 5 6 6 6
8 8 9 9 9 9 10 8 9 10 9 10 11 10 9 10 10 11 9 9 11 11 10 8 8 8 7 8 9 10 8 10 9 15 20 22 25 27 13 12 12 9 9 9 10 10 13 9 8 12 18 18 19 20 21 21 24 15 14 20 18 18 12 9 8 8 7 6 5 4 3 3 3 3 3 3 3 3 3 3 4 5 6 7 7
9 9 9 10 10 10 9 11 10 9 10 10 12 11 10 10 10 10 10 10 10 11 10 9 9 8 7 7 7 7 8 9 14 11 18 22 23 24 24 13 15 10 11 12 12 12 9 8 9 13 17 19 20 22 22 23 20 17 23 21 21 20 15 7 6 7 5 5 5 6 5 5 4 4 3 3 3 3 3 4 4 5 6 6 8
8 9 9 9 9 9 9 10 9 9 10 10 10 10 10 9 9 9 10 10 9 10 8 8 8 8 9 8 7 8 7 7 10 15 14 19 20 22 23 23 17 13 11 12 11 10 10 10 8 15 18 20 21 22 23 22 17 22 23 23 21 18 6 7 8 8 7 7 6 5 6 5 4 4 4 3 3 4 4 4 5 5 6 6 7
10 9 9 9 9 9 8 9 9 9 9 10 10 9 9 9 9 7 8 8 8 9 9 8 9 10 9 10 9 7 7 7 6 10 16 17 19 20 21 23 24 21 13 12 10 9 9 12 15 17 18 20 21 21 20 23 26 24 23 22 19 8 7 9 9 8 8 10 7 6 6 6 5 4 3 3 3 2 3 3 4 4 5 6 7
10 10 10 9 10 10 10 9 9 9 10 9 10 9 11 11 10 9 9 9 9 9 9 8 9 9 10 9 9 8 6 6 7 7 9 10 12 19 21 21 20 22 20 13 13 15 14 15 18 18 18 17 14 12 12 12 20 23 23 20 11 6 9 9 9 9 10 8 8 7 7 3 3 3 3 3 2 3 2 2 2 2 1 3 4
10 9 10 8 8 9 10 9 8 7 8 7 7 7 7 8 8 8 9 9 9 8 8 8 8 8 10 9 8 6 5 6 7 7 7 8 8 9 11 13 17 18 15 13 12 13 15 16 12 15 12 17 17 15 15 13 14 15 12 12 8 7 10 11 11 11 10 8 7 5 2 2 2 3 3 3 3 3 3 3 3 3 2 3 3
10 9 9 8 8 8 8 10 11 8 8 8 8 7 7 8 9 10 11 11 10 9 9 9 10 10 10 9 7 6 7 7 8 9 9 8 8 7 7 8 9 9 11 11 9 8 8 11 15 11 10 10 12 10 11 10 11 9 10 7 6 6 7 7 6 5 6 5 2 2 2 3 3 3 2 3 3 3 3 4 4 3 2 2 3
8 7 7 7 7 7 7 8 8 8 8 7 7 9 10 10 10 8 7 8 10 12 11 10 10 9 8 8 8 8 7 9 12 9 9 10 10 8 9 10 10 10 12 13 8 4 6 6 7 9 10 10 10 11 10 10 10 10 10 8 6 8 8 9 10 8 5 5 6 5 4 4 3 3 3 3 4 3 3 4 5 4 3 3 5
7 7 7 7 7 7 6 7 7 7 8 8 7 4 3 6 6 7 7 8 11 10 8 9 8 7 7 8 8 10 11 9 5 12 16 18 20 21 18 17 16 13 13 18 13 10 9 8 9 9 9 8 9 10 13 12 12 11 10 8 7 7 8 8 8 7 6 7 5 5 4 4 4 4 4 4 4 3 4 6 4 4 3 4 4
7 7 7 7 8 8 7 7 6 6 6 7 7 7 5 2 7 9 6 7 9 13 13 11 9 10 9 7 8 13 12 8 10 13 16 18 20 21 21 20 20 20 19 11 11 13 10 10 11 8 9 9 9 9 11 11 12 11 11 9 9 9 8 8 8 5 6 6 5 4 4 5 5 4 5 5 4 3 3 4 4 4 4 4 5
9 8 7 6 7 7 6 7 7 7 6 6 6 7 7 6 3 4 8 9 10 13 14 14 14 13 16 13 8 6 11 14 15 13 14 16 18 19 19 20 20 20 20 19 12 12 10 10 10 10 9 9 12 10 10 12 11 12 11 10 9 10 10 10 9 7 6 5 5 4 5 5 5 5 4 4 4 4 3 3 4 4 5 4 6
8 7 7 7 7 7 7 7 7 7 7 7 6 6 7 7 7 6 4 6 10 12 13 14 16 16 15 15 15 11 10 10 13 15 15 15 15 16 18 19 19 19 19 14 12 11 10 11 11 10 9 11 10 10 10 11 10 10 10 11 11 10 11 9 8 8 7 6 5 5 5 5 5 4 4 4 5 4 3 4 3 2 3 5 5
8 8 8 8 8 7 7 7 7 7 6 6 7 7 7 7 7 6 7 4 3 7 11 15 15 14 15 16 15 16 15 14 14 14 15 16 17 17 17 13 17 19 17 12 11 12 10 10 11 10 9 8 9 9 10 10 9 9 9 9 9 8 9 8 7 7 6 7 7 5 5 5 4 5 5 4 4 4 4 4 3 3 4 4 4
6 6 10 9 7 8 7 7 7 6 6 7 7 7 7 6 5 6 7 7 7 7 4 3 6 11 10 10 14 15 15 15 16 16 16 16 15 15 15 11 11 11 12 12 10 11 11 11 10 9 8 8 7 9 10 9 8 8 9 8 8 8 7 9 9 8 7 7 7 7 7 6 6 5 5 5 5 6 6 5 4 4 4 3 3
7 6 6 7 6 6 6 6 6 7 7 7 6 6 6 6 5 5 4 3 4 3 1 0 1 4 7 7 8 10 12 14 15 15 15 16 16 16 10 9 9 9 9 10 9 9 8 10 10 11 9 9 8 8 9 8 8 8 8 8 9 8 9 8 7 9 8 7 7 7 7 5 5 5 4 4 6 7 5 5 4 4 4 4 4
7 6 6 5 5 5 5 5 5 5 5 5 6 5 5 4 3 3 3 3 3 1 2 1 3 5 4 3 4 7 9 10 11 12 14 14 16 11 9 8 8 8 8 8 9 9 9 9 8 9 7 7 7 7 7 8 8 8 7 8 9 9 8 9 9 7 6 6 6 7 7 7 6 6 7 7 5 5 5 4 4 5 5 6 6
6 7 6 6 6 5 5 5 5 5 5 4 4 4 5 4 4 4 5 4 3 3 3 1 2 4 4 5 2 2 4 7 8 8 8 10 10 9 8 7 8 10 10 8 9 9 9 9 7 7 7 7 8 7 8 8 7 8 8 8 8 9 8 7 7 8 8 6 5 5 6 6 6 6 6 7 6 5 5 5 5 5 5 6 5
4 6 8 8 6 6 6 6 6 5 4 4 5 5 5 5 4 4 4 3 3 3 3 2 3 4 5 3 4 3 2 2 1 3 3 3 5 6 7 7 7 8 8 8 7 8 9 9 6 6 6 7 7 7 8 8 8 8 7 7 6 6 7 6 7 7 7 6 5 4 5 5 5 5 6 5 6 6 5 5 5 5 5 5 5
6 5 7 8 6 6 6 6 6 6 6 6 5 5 4 5 5 5 4 4 4 3 4 4 4 5 4 1 3 2 1 3 3 3 3 3 4 5 6 8 7 7 8 8 8 7 8 7 6 7 7 6 6 7 7 7 6 5 6 7 7 7 7 7 8 7 6 6 5 5 6 5 5 5 5 5 5 5 6 6 5 5 5 4 4
5 6 6 6 6 6 6 6 6 6 5 5 6 6 6 6 4 4 4 4 3 3 4 5 5 4 3 4 7 6 4 4 4 3 4 3 3 5 6 7 7 5 5 5 6 6 7 7 7 7 7 7 6 6 5 5 5 6 7 6 6 7 7 7 6 6 7 6 7 6 5 5 5 6 6 7 6 6 5 4 4 4 5 4 4
7 6 6 6 6 6 6 6 6 5 6 6 6 6 6 5 4 5 5 4 5 4 4 4 4 3 4 7 8 9 5 3 3 4 5 4 5 5 5 5 4 4 4 4 4 4 4 4 4 5 6 6 6 5 5 5 6 6 5 6 7 7 7 6 7 7 8 7 7 6 6 6 6 6 6 5 5 7 5 5 4 4 4 4 4
6 6 6 6 6 6 7 6 6 6 4 5 4 4 5 4 5 5 4 5 4 4 3 3 3 1 2 6 5 7 3 2 2 3 4 4 5 5 5 5 3 1 1 1 2 2 2 2 2 2 1 1 3 5 6 6 6 5 6 6 7 7 7 7 5 6 7 6 7 7 8 6 6 6 5 6 5 4 4 5 4 4 5 4 4
6 6 6 5 6 4 5 6 6 4 5 4 4 5 5 4 4 4 4 4 3 2 3 3 2 2 3 4 3 2 2 3 3 3 3 3 3 4 4 1 0 0 0 0 1 1 1 1 1 1 2 2 3 3 3 4 5 6 6 7 7 7 7 7 8 7 6 6 6 6 5 5 5 4 6 6 4 5 5 5 4 4 4 3 3
6 6 6 6 5 5 3 3 4 5 6 6 4 3 5 4 4 4 3 3 4 2 2 2 2 2 3 2 2 3 3 3 4 4 4 4 4 3 1 0 1 1 1 1 0 0 0 1 1 2 2 2 3 3 3 3 4 5 6 7 7 7 8 8 6 5 6 7 6 5 5 5 6 6 7 6 5 5 4 5 4 4 3 3 3
6 6 7 6 6 6 6 5 6 5 6 6 6 6 4 3 3 3 4 3 3 2 2 2 2 2 3 3 3 4 3 3 4 3 4 2 1 2 1 1 1 1 1 1 1 1 1 1 2 2 3 3 4 3 2 2 2 2 3 4 5 4 3 3 3 6 7 7 6 5 5 6 6 6 6 5 4 4 4 4 4 4 4 4 5
6 6 6 7 6 7 6 6 6 5 5 4 4 4 4 3 3 2 4 4 2 4 2 2 2 2 3 3 3 4 4 2 3 3 3 1 0 0 0 1 1 1 2 1 2 2 2 2 2 2 2 2 3 4 3 2 2 2 2 2 2 2 2 3 5 6 5 7 6 5 7 6 6 5 6 5 4 4 4 5 5 6 5 4 4
6 6 6 6 6 6 6 6 6 5 5 5 4 4 4 4 3 3 3 2 1 2 1 1 2 3 3 3 3 3 3 3 2 3 1 1 1 0 1 1 1 2 2 1 1 1 1 1 1 1 1 1 2 3 3 3 3 3 3 3 3 3 4 4 4 4 4 5 7 7 7 7 5 5 4 6 5 5 6 5 4 3 5 4 5
5 6 6 6 6 6 7 6 7 6 6 6 4 4 5 2 3 2 2 1 1 1 2 3 3 2 2 3 3 3 3 4 3 3 2 1 1 1 1 1 1 1 2 2 1 1 1 1 1 1 2 2 2 3 3 4 4 4 4 4 4 7 7 7 5 5 5 5 4 5 4 5 5 5 5 5 6 5 5 4 4 4 3 3 4
6 5 5 4 5 4 4 4 5 6 5 5 6 4 2 3 1 2 1 1 1 1 2 2 3 3 4 2 4 3 2 3 3 3 2 1 1 2 1 1 2 2 2 2 2 3 3 3 3 3 3 3 3 3 3 3 3 3 3 4 7 8 8 9 9 7 6 4 5 5 5 5 4 4 4 6 5 6 6 6 5 4 4 4 4
6 4 4 4 4 3 5 5 5 4 5 5 5 4 3 3 2 1 1 2 3 3 2 4 4 3 2 4 4 3 3 4 3 3 3 2 2 2 3 3 3 3 3 3 3 3 3 3 3 3 3 3 3 3 3 3 3 3 5 8 9 9 9 9 7 9 10 6 4 5 5 7 6 6 5 5 4 6 8 6 5 4 4 4 3
Wind_Direction
182 186 176 185 179 182 181 177 177 170 156 160 167 160 147 145 148 133 127 131 129 132 132 130 126 121 123 124 123 121 115 109 102 103 102 110 108 115 128 131 123 125 128 127 128 128 129 124 127 122 129 127 126 127 122 119 114 111 114 117 118 127 139 167 214 255 266 143 184 327 351 341 332 330 320 321 321 323 320 319 319 319 315 316 320
185 180 182 180 182 181 179 172 169 165 161 150 158 152 146 149 139 137 137 126 131 131 132 129 124 129 127 127 125 119 114 112 114 111 119 121 123 128 137 138 129 131 134 135 140 141 138 131 132 136 141 127 132 130 133 135 132 131 138 137 133 135 162 167 228 231 267 276 301 343 344 339 321 324 324 322 324 323 324 325 326 327 325 325 327
180 177 176 176 177 175 172 170 161 168 163 151 145 146 139 132 139 142 136 130 127 132 136 131 132 133 131 130 127 123 123 118 118 120 129 136 139 146 149 147 141 140 142 142 146 147 141 138 141 142 139 132 136 134 134 140 140 140 143 142 140 150 169 192 170 244 268 299 267 341 334 331 322 320 318 311 308 315 321 329 336 335 332 327 325
174 173 174 175 173 169 173 162 160 163 164 158 148 144 138 134 137 133 130 131 132 131 128 134 135 142 136 134 130 132 129 125 123 129 140 147 145 147 149 145 136 135 139 149 156 161 152 143 152 151 147 139 144 146 150 147 152 150 152 158 158 176 179 169 220 188 252 284 281 332 320 326 319 310 304 301 311 317 321 322 327 329 328 326 323
172 174 173 173 173 172 164 164 167 164 163 159 151 143 144 143 143 143 140 135 131 131 135 136 141 148 149 143 140 139 136 130 128 132 136 144 148 146 150 145 140 141 148 156 165 163 164 160 156 155 153 146 154 159 160 163 161 159 164 173 186 183 176 191 202 228 238 272 290 290 298 305 301 300 308 326 328 326 319 316 322 321 333 327 324
175 172 175 175 174 176 172 166 170 160 161 157 156 153 149 151 148 146 149 137 133 137 140 147 153 151 143 137 134 134 131 127 129 132 137 142 142 142 135 136 136 139 152 162 167 178 170 166 163 163 164 163 164 163 167 170 165 173 177 184 185 183 188 200 203 219 244 269 292 303 309 313 317 315 331 343 336 330 329 324 315 327 334 331 329
174 176 177 179 176 178 169 172 175 174 167 160 153 153 154 151 149 148 149 140 140 145 149 144 152 148 145 141 143 142 134 126 125 133 137 144 146 146 139 135 136 140 154 156 159 173 182 175 170 173 173 171 165 171 170 172 175 181 187 185 186 186 194 196 207 215 240 278 289 290 301 305 313 319 332 346 336 330 336 334 330 342 341 337 326
177 180 178 182 183 178 172 176 175 163 158 151 156 152 148 149 147 142 144 147 152 156 155 154 150 151 149 142 139 135 136 132 132 138 146 146 152 156 160 146 142 142 142 148 159 174 185 188 182 179 177 177 177 173 172 172 171 181 189 187 186 188 193 194 200 206 228 271 293 307 316 312 318 318 329 338 341 342 353 340 325 329 334 334 323
181 181 182 186 185 178 172 174 170 166 160 155 156 152 152 156 152 151 155 150 148 147 142 141 143 145 145 146 142 146 142 147 150 153 152 153 153 162 157 149 149 149 146 149 166 174 186 189 188 178 176 183 190 181 181 171 165 177 189 188 192 187 191 192 192 204 236 260 292 304 307 310 315 331 340 347 349 338 335 333 319 322 323 320 318
181 183 187 187 177 172 171 168 166 163 154 157 160 157 155 155 155 158 161 159 151 151 151 147 149 149 145 146 144 142 153 150 161 161 161 157 162 160 150 152 153 151 152 157 171 183 189 187 188 180 181 190 195 190 189 187 186 186 178 188 188 181 180 180 198 214 219 242 283 299 299 301 320 329 332 329 330 327 328 330 325 325 326 315 296
187 183 186 181 171 166 168 170 163 165 163 158 157 157 158 161 164 159 152 149 150 150 151 153 157 157 158 157 158 158 162 162 169 170 167 165 159 164 164 163 155 156 164 170 175 180 187 188 193 190 189 196 202 199 197 197 197 202 198 198 191 176 166 182 204 201 202 244 260 276 286 296 307 316 318 324 321 325 322 323 322 325 331 335 328
187 186 179 172 170 168 168 164 166 167 163 163 162 161 155 154 159 158 153 151 154 150 155 159 154 157 157 159 161 165 159 171 173 174 172 170 169 165 160 161 162 170 173 176 175 179 185 186 196 201 200 195 196 204 205 204 206 207 208 207 210 206 196 182 193 214 225 240 260 271 282 282 295 304 311 318 316 316 314 314 312 317 318 318 311
186 183 177 173 171 170 167 166 167 169 172 163 155 151 153 157 159 160 163 158 146 156 162 157 164 162 163 164 168 166 162 177 179 176 175 173 170 156 148 153 163 171 173 175 178 183 180 186 191 201 197 190 190 198 192 205 206 209 216 223 224 221 221 222 216 198 212 249 263 262 258 276 283 291 304 308 307 302 305 302 306 304 301 299 299
183 182 176 174 169 169 168 166 167 168 166 160 156 158 161 166 167 165 157 156 163 165 165 166 163 168 172 170 166 166 163 180 181 179 177 175 172 166 152 161 174 175 173 178 183 191 189 185 188 197 194 197 196 192 194 191 189 204 221 223 223 229 229 231 237 242 253 258 259 257 260 262 281 290 294 296 294 297 297 296 297 292 288 286 294
183 179 176 171 168 170 170 172 171 167 168 168 166 168 171 171 171 172 172 171 168 166 164 167 172 174 173 166 157 165 176 184 183 181 180 179 177 165 160 162 177 186 188 188 191 191 189 191 196 196 191 198 192 189 186 185 181 197 215 233 235 235 241 244 239 229 231 243 248 248 223 205 237 268 281 283 290 291 291 289 288 273 279 284 272
181 176 176 173 173 172 170 172 170 169 169 170 172 173 174 174 172 168 162 164 169 163 165 165 168 169 163 159 158 169 177 187 187 187 186 185 180 153 164 171 184 193 197 193 188 194 195 196 198 202 198 200 199 197 191 175 173 195 213 228 237 244 244 238 235 231 221 216 230 229 194 204 220 240 269 292 301 297 286 332 279 296 307 291 277
181 177 175 173 172 169 170 169 172 174 173 172 174 173 170 166 162 160 164 170 172 177 172 173 172 164 162 167 167 173 174 191 193 193 191 190 185 144 167 176 192 193 204 191 184 188 194 197 200 200 202 203 198 199 195 182 182 197 207 219 230 239 239 239 236 230 230 228 225 240 252 270 283 283 289 301 302 297 126 280 273 293 304 302 293
178 175 176 171 171 172 175 173 171 171 171 177 175 171 170 170 173 172 174 171 177 179 174 167 165 166 167 168 175 174 181 192 196 199 198 196 191 169 173 181 194 197 199 190 186 197 204 206 205 205 204 205 196 201 199 192 192 195 197 208 226 235 235 220 224 232 230 227 227 198 108 251 276 297 309 306 298 287 204 250 262 157 275 275 289
180 180 178 173 173 171 171 169 169 171 176 178 173 170 172 171 165 161 169 172 177 167 164 161 157 163 171 176 176 179 182 193 200 202 202 203 200 181 179 184 189 206 195 195 197 201 210 214 215 214 215 203 200 201 202 199 198 198 205 211 222 230 227 207 212 207 184 145 170 145 202 162 203 266 285 300 290 276 249 226 201 216 254 268 283
178 167 160 163 164 164 168 171 171 171 171 165 165 162 149 137 140 155 152 148 141 146 149 156 164 177 179 180 186 190 190 194 200 205 206 208 208 196 193 192 210 212 203 195 188 213 212 221 224 224 222 214 207 205 207 208 207 205 197 210 217 229 216 204 205 196 195 189 195 181 199 176 189 248 257 248 255 221 228 228 217 218 236 250 258
155 157 152 152 156 160 161 167 164 163 161 156 149 141 146 147 146 152 154 150 150 158 175 180 184 185 185 193 191 198 199 199 202 206 210 212 213 210 195 207 212 208 203 205 212 217 216 211 209 223 225 220 216 214 213 215 216 211 210 216 220 219 191 198 207 202 201 192 187 179 189 187 234 240 245 237 229 219 226 238 229 231 235 237 248
146 145 150 154 156 158 161 159 157 155 152 148 150 154 157 157 161 163 165 168 175 180 181 185 188 193 193 196 201 204 201 202 203 209 212 216 218 217 211 213 209 203 204 211 214 222 224 214 212 214 222 226 223 221 219 219 220 220 217 223 227 229 226 199 200 201 197 198 178 193 196 224 245 245 246 241 232 227 223 229 234 236 240 243 240
148 150 153 157 161 162 160 159 155 153 155 160 159 162 164 165 168 169 172 177 181 183 186 189 192 198 200 204 206 208 207 210 210 211 218 220 222 223 223 214 207 201 208 219 216 222 214 213 213 205 216 223 228 226 225 223 223 226 227 227 230 231 232 191 189 184 185 184 175 207 211 217 224 238 236 232 230 218 227 234 243 248 253 252 258
148 150 156 158 157 160 160 160 155 155 157 158 162 161 166 169 170 177 179 180 183 190 194 191 196 202 208 213 210 214 209 207 215 215 219 225 227 227 229 225 206 209 212 227 226 223 218 196 195 207 217 223 226 229 230 227 226 228 229 232 233 235 208 168 184 192 186 195 204 206 217 220 212 233 228 220 212 211 226 242 252 253 255 263 263
152 157 159 160 161 159 156 160 161 161 163 163 165 168 167 167 173 180 179 186 189 193 197 191 200 207 210 218 217 209 206 205 213 223 222 223 229 232 234 234 230 219 216 231 228 227 220 206 205 212 217 223 227 230 233 234 233 233 233 233 232 217 171 188 191 185 194 210 211 213 220 218 207 213 206 198 201 218 235 252 257 259 269 273 274
159 162 161 161 161 156 158 162 163 164 165 172 176 175 172 175 179 179 184 190 191 195 198 194 204 209 217 222 222 216 194 194 211 217 226 228 230 232 235 237 239 237 230 226 215 221 220 216 216 218 220 226 228 229 228 230 233 235 234 232 228 173 177 190 191 190 210 209 213 213 219 187 185 187 183 198 212 227 211 258 271 263 215 257 282
158 157 161 157 154 157 159 164 163 161 168 169 172 169 168 176 177 177 186 188 193 198 199 197 203 210 220 223 222 211 198 200 207 209 207 216 225 227 234 241 242 245 249 238 217 223 226 226 223 227 229 229 228 231 233 230 231 232 231 228 215 177 190 195 198 203 210 209 216 206 182 159 125 143 200 199 224 220 195 237 255 265 257 259 262
159 162 159 155 156 162 163 161 161 165 172 170 171 172 175 179 183 188 188 189 189 197 197 203 206 209 216 218 215 210 216 214 213 208 206 205 216 214 225 233 233 234 237 240 238 224 221 222 225 224 224 225 226 224 226 221 222 221 225 222 204 195 189 188 188 202 204 196 173 130 129 150 177 191 184 208 224 220 199 218 223 246 255 273 282
150 146 147 149 158 164 162 165 172 167 173 180 191 184 178 185 194 203 206 192 192 189 195 207 212 212 208 207 201 216 222 225 227 204 205 199 200 201 214 220 223 227 231 234 243 233 211 206 205 212 212 213 214 217 218 220 221 215 213 211 194 190 191 195 204 203 189 168 194 191 195 167 198 182 199 215 227 215 199 205 223 223 242 213 241
138 150 153 157 157 160 163 167 168 168 171 180 176 210 246 204 204 192 196 200 211 218 199 207 205 192 203 219 199 207 217 227 197 197 205 207 210 213 216 216 216 220 224 227 228 236 228 212 214 208 209 202 210 218 224 223 222 213 214 200 197 199 200 205 208 205 185 190 189 186 186 178 200 191 202 214 232 211 212 213 212 188 198 231 248
145 150 159 168 169 165 159 163 169 168 171 172 180 180 191 209 215 214 193 183 206 216 219 220 204 193 194 220 224 231 239 228 207 203 206 210 213 217 221 224 225 224 222 219 232 231 232 226 228 212 217 213 219 220 223 226 223 220 216 207 211 208 210 210 211 195 188 193 202 191 181 187 205 192 201 209 214 222 206 221 216 213 223 229 249
162 170 165 157 155 163 161 160 160 162 167 168 172 179 181 194 258 244 217 201 202 211 220 224 224 217 208 209 205 234 235 235 233 227 221 218 220 220 223 226 226 224 222 215 224 231 227 232 238 229 218 223 232 228 227 228 226 226 220 211 213 208 207 217 205 184 181 190 188 190 189 202 205 201 200 204 208 222 219 212 208 213 232 233 245
146 149 151 152 153 153 157 158 169 165 167 167 174 175 181 191 197 222 242 229 219 218 220 224 228 230 231 230 219 209 212 220 230 235 236 235 232 235 237 238 237 234 228 226 227 236 233 235 242 241 229 232 231 228 230 228 225 222 217 216 215 206 213 216 191 201 198 193 181 193 192 197 198 195 203 199 207 220 212 223 210 204 225 247 251
154 156 161 162 156 163 166 169 168 180 170 174 172 179 193 191 204 185 194 242 282 257 244 237 234 235 239 240 242 246 242 231 225 230 237 242 243 242 242 244 242 237 231 229 228 236 233 233 241 243 241 239 237 229 232 231 224 219 215 214 217 208 208 195 190 201 189 198 197 194 189 197 178 187 198 198 211 218 223 227 214 218 228 226 244
139 148 152 154 166 168 169 167 167 164 168 174 178 185 192 194 183 180 188 195 204 217 227 271 263 251 247 246 249 251 252 253 251 246 242 239 239 242 246 247 242 237 234 235 231 236 237 235 238 239 238 238 233 228 235 229 223 215 215 213 212 214 194 190 201 198 197 196 202 204 201 186 188 189 189 189 201 214 223 222 221 216 223 232 235
141 147 155 156 150 156 162 164 165 170 177 181 180 180 168 165 183 198 189 201 203 217 1 304 275 349 329 304 278 264 260 256 254 253 253 251 247 241 233 229 231 230 229 234 238 242 239 239 237 243 237 236 228 226 227 224 217 215 215 210 210 207 202 192 195 201 201 195 202 199 196 194 186 186 184 199 206 213 210 210 213 216 221 229 235
141 143 150 154 151 147 150 150 158 162 156 154 154 156 158 167 165 153 168 188 203 179 197 281 349 320 318 312 315 298 293 284 276 269 259 252 249 248 244 232 225 230 229 231 232 238 243 244 240 243 231 226 224 221 215 216 212 211 207 208 206 197 195 197 198 195 184 194 191 198 200 196 187 187 184 200 210 214 216 209 216 221 223 229 234
144 149 151 147 138 131 138 147 150 143 137 137 146 150 150 158 165 165 173 184 184 193 219 227 209 233 256 266 5 2 312 303 299 292 285 272 256 242 241 244 236 236 238 230 232 235 243 247 238 235 229 221 224 218 214 216 209 204 192 185 173 201 193 194 196 195 200 196 191 193 195 194 185 184 188 200 204 204 207 208 211 220 227 231 231
124 133 135 138 141 143 142 138 141 138 135 139 146 150 156 158 153 164 177 172 180 191 181 192 209 232 242 275 298 317 357 308 274 258 255 251 260 261 259 253 247 245 241 238 231 232 238 241 233 218 214 213 214 213 209 211 201 195 169 184 187 189 183 182 185 190 194 201 198 188 187 201 193 188 191 194 208 204 207 201 208 206 216 219 224
137 134 142 138 126 136 137 140 142 142 150 145 155 151 149 162 180 185 174 172 198 197 196 204 228 235 245 213 248 283 275 263 252 257 257 254 255 266 266 265 262 257 254 250 244 236 234 236 220 214 213 207 206 205 206 205 192 180 177 181 179 189 192 185 189 183 192 194 193 188 190 195 190 179 192 206 208 199 202 206 209 209 214 221 231
133 134 136 138 133 127 122 131 145 158 157 159 159 166 179 178 175 164 165 184 184 188 200 210 225 242 230 230 252 241 213 236 248 256 255 261 269 265 263 267 277 286 287 278 263 246 232 227 216 216 215 209 203 197 187 180 170 175 179 182 177 187 188 193 190 190 202 196 202 189 188 191 183 176 195 212 208 209 211 209 214 215 216 221 224
133 136 134 135 129 128 136 146 152 151 152 151 158 169 170 170 165 162 178 180 189 191 200 217 233 238 252 255 257 263 255 231 221 233 245 250 261 267 276 286 306 309 314 325 336 324 305 271 243 218 214 198 184 176 164 169 175 175 174 179 185 181 186 194 200 197 193 192 184 185 188 188 188 196 209 202 197 211 204 204 214 210 215 223 225
130 128 130 129 133 147 153 155 145 138 144 153 163 155 154 153 166 175 173 179 182 184 189 213 246 240 257 263 274 281 300 292 275 263 263 257 250 249 250 260 271 7 33 31 3 343 341 0 25 26 51 145 168 169 174 179 176 173 174 182 187 193 198 204 198 206 207 187 187 190 185 190 194 198 202 208 198 187 203 203 210 213 221 220 221
119 114 112 114 114 103 114 132 142 148 151 152 146 150 155 158 159 161 168 175 183 181 186 206 210 228 251 283 309 313 297 280 274 268 268 269 272 270 274 283 59 104 97 98 58 28 65 78 87 82 86 109 118 129 150 168 169 176 181 185 193 197 202 204 205 192 176 182 186 186 186 187 193 193 199 203 187 189 200 194 207 209 217 216 214
113 120 121 117 118 121 122 123 130 133 130 125 135 149 153 157 164 168 165 174 177 179 191 203 205 202 237 262 240 227 242 242 255 261 266 261 253 263 273 164 169 187 194 206 144 95 97 159 147 147 143 133 106 145 163 168 178 187 188 188 191 196 208 203 191 173 161 171 184 181 185 183 192 197 203 200 185 193 200 200 200 200 206 213 205
122 128 129 133 131 131 131 135 135 139 147 154 155 160 159 155 156 154 163 167 171 181 201 207 207 209 211 235 240 233 241 236 249 250 253 273 269 264 241 205 178 178 175 178 166 170 193 187 187 180 182 178 180 168 169 157 169 186 189 205 208 210 195 170 138 141 171 178 181 180 182 183 194 196 197 191 193 191 200 202 196 203 207 210 212
122 129 134 138 141 144 145 143 138 139 140 142 143 143 156 160 159 162 161 169 172 183 193 210 196 221 222 220 227 238 235 229 240 249 248 241 259 233 129 124 123 140 164 169 176 182 185 180 183 181 178 147 145 156 169 165 165 173 184 194 207 187 171 165 170 175 174 182 179 154 178 176 190 187 196 187 184 195 195 202 195 205 207 208 210
124 125 129 136 134 137 145 144 140 137 139 141 142 145 151 154 156 158 164 165 170 176 195 213 219 227 224 237 229 227 228 226 228 225 221 223 219 217 193 168 177 188 171 178 198 193 198 207 207 182 194 178 166 176 174 183 175 185 187 201 195 202 176 168 172 174 173 159 170 183 178 187 188 188 180 186 193 187 197 207 200 207 200 204 213
126 129 133 136 140 141 147 146 146 150 157 152 146 147 148 149 156 155 154 161 172 196 191 205 229 220 219 233 223 225 227 227 239 258 249 261 252 250 207 212 198 198 188 210 203 195 207 220 222 228 220 223 215 202 194 189 201 200 202 196 208 211 205 194 186 182 166 158 176 179 186 191 193 194 189 191 197 196 205 208 199 204 206 207 208
118 119 123 122 121 131 127 127 135 139 140 143 141 143 143 137 138 150 163 171 181 205 220 213 214 219 207 221 225 225 221 231 238 241 245 240 238 235 228 231 237 236 223 229 222 198 201 199 209 217 218 217 219 218 214 206 211 211 205 207 220 218 214 209 208 188 178 189 179 186 184 192 189 193 188 198 197 198 202 209 202 200 207 205 215
99 97 97 108 119 129 130 127 130 133 134 137 137 140 151 163 174 175 168 183 205 219 218 220 220 218 222 217 214 221 227 233 233 231 234 235 230 220 223 221 230 239 245 236 238 227 219 217 219 223 222 220 220 224 221 222 213 218 223 226 227 226 220 212 210 206 194 178 177 169 182 190 192 195 194 190 189 196 207 204 202 204 207 210 212